Location: B?dimalle
(17.1788°N, 80.5377°E)
Time: 09:35:55
(UTC+00:00)

Tiros 1 despin weight - Pass Details

Date: 19 February 2026
Orbit: 556 x 593 km, 48.2° (Epoch: 10 March)

Event Time Altitude Azimuth Distance (km) Brightness Sun altitude
Rises 07:14:42 0° 228° (SW) 2,764 ? 61.0°
Reaches altitude 10° 07:16:59 10° 231° (SW) 1,861 ? 60.9°
Maximum altitude 07:21:12 62° 313° (NW) 632 ? 60.7°
Drops below altitude 10° 07:25:22 10° 34° (NE) 1,841 ? 60.4°
Sets 07:27:37 0° 38° (NE) 2,733 ? 60.2°
